AirNav   Air Wisconsin Airman Trainee
 
 1030 users online  

50F Bourland Field Airport
Fort Worth, Texas, USA

GOING TO FORT WORTH?


FAA INFORMATION EFFECTIVE 23 MAY 2019

Location

FAA Identifier: 50F
Lat/Long: 32-34-54.6000N / 097-35-26.8000W
32-34.910000N / 097-35.446667W
32.5818333 / -97.5907778
(estimated)
Elevation: 873.2 ft. / 266.2 m (surveyed)
Variation: 06E (2000)
From city: 17 miles SW of FORT WORTH, TX
Time zone: UTC -5 (UTC -6 during Standard Time)
Zip code: 76126

Airport Operations

Airport use: Open to the public
Activation date: 09/1981
Control tower: no
ARTCC: FORT WORTH CENTER
FSS: FORT WORTH FLIGHT SERVICE STATION
NOTAMs facility: FTW (NOTAM-D service available)
Attendance: DAYLIGHT HOURS
FOR SVCS AFT HRS CALL 817-396-4554.
Wind indicator: lighted
Segmented circle: yes
Lights: ACTVT MIRL RY 17/35, VASI RYS 17 & 35 - CTAF.
Beacon: white-green (lighted land airport)
Operates sunset to sunrise.

Airport Communications

CTAF/UNICOM: 123.0
REGIONAL APPROACH: 135.975
REGIONAL DEPARTURE: 135.975
DODJE STAR: 125.2 125.9
LIKES STAR: 125.8 ;(SOUTH) 135.975 ;(NORTH)
MOTZA STAR: 118.1 ;(SOUTH) 125.8 ;(NORTH)
REEKO STAR: 125.2
SANGR STAR: 124.3
SASIE STAR: 124.3
SLUGG STAR: 125.8 ;(SOUTH) 135.975 ;(NORTH)
WESAT STAR: 118.1 ;(SOUTH) 125.8 ;(NORTH)
WX AWOS-3 at GDJ (14 nm SW): 118.925 (817-573-7514)
WX AWOS-3 at FWS (14 nm E): 120.025 (817-426-4172)
WX AWOS-3 at CPT (16 nm SE): 119.525 (817-641-4135)
WX ASOS at FTW (18 nm NE): PHONE 817-740-3346

Nearby radio navigation aids

VOR radial/distance  VOR name  Freq  Var
MQPr104/22.3MILLSAP VORTAC117.7009E
FUZr222/27.8RANGER VORTAC115.7006E
JENr024/29.2GLEN ROSE VORTAC115.0006E
TTTr232/32.7MAVERICK VOR/DME113.1006E
CVEr236/39.3COWBOY VOR/DME116.2006E

Airport Services

Fuel available: 100LL JET-A
FUEL AVBL SELF SERVE AND FULL SERVICE
Parking: hangars and tiedowns

Runway Information

Runway 17/35

Dimensions: 4049 x 60 ft. / 1234 x 18 m
Surface: asphalt, in good condition
Runway edge lights: medium intensity
RY 17/35 NSTD MIRL; LENSES ON THLD & DSPLCD THLD CLEAR LENSES WITH SOLID COLOR BULBS.
RUNWAY 17  RUNWAY 35
Latitude: 32-35.240523N32-34.580380N
Longitude: 097-35.505517W097-35.388090W
Elevation: 873.1 ft.836.7 ft.
Traffic pattern: leftleft
Runway heading: 165 magnetic, 171 true345 magnetic, 351 true
Displaced threshold: 392 ft.215 ft.
Markings: nonprecision, in good conditionnonprecision, in good condition
Visual slope indicator: 2-box VASI on left (3.00 degrees glide path)2-box VASI on left (3.00 degrees glide path)
Touchdown point: yes, no lightsyes, no lights
Obstructions: 32 ft. pole, 356 ft. from runway, 250 ft. right of centerline, 4:1 slope to clear
+20 FT ROAD 0 FT FM PAVEMENT 125 FT R TO 125 FT FM PAVEMENT 250 FT LEFT. +4 FT FENCE 0 FT FM PAVEMENT 80 FT RIGHT TO 100 FT FM PAVEMENT 250 FT LEFT.
24 ft. trees, 217 ft. from runway, 115 ft. right of centerline
+30 FT TREES 0-120 FT FM PAVEMENT 60 FT R & L.

Airport Ownership and Management from official FAA records

Ownership: Privately-owned
Owner: MATT RIX
17611 HWY 377 SOUTH
CRESSON, TX 76035
Phone 817-307-0718
ALSO MATTHEW MOORE - 682-521-7056.
Manager: NATALIE RIX
204 CONSTELLATION DR
CRESSON, TX 76035
Phone 817-396-4554

Airport Operational Statistics

Aircraft based on the field: 118
Single engine airplanes: 100
Multi engine airplanes: 15
Jet airplanes: 2
Helicopters: 1
    
Aircraft operations: avg 128/day *
75% local general aviation
25% transient general aviation
* for 12-month period ending 05 April 2016

Additional Remarks

FOR CD CTC REGIONAL APCH AT 972-615-2799.

Instrument Procedures

NOTE: All procedures below are presented as PDF files. If you need a reader for these files, you should download the free Adobe Reader.

NOT FOR NAVIGATION. Please procure official charts for flight.
FAA instrument procedures published for use from 23 May 2019 at 0901Z to 20 June 2019 at 0900Z.

 
STARs - Standard Terminal Arrivals
LIKES THREE (RNAV)   download (195KB)
MOTZA EIGHT   2 pages: [1] [2] (503KB)
REEKO THREE (RNAV)   download (198KB)
SASIE FIVE   2 pages: [1] [2] (489KB)
TRUUK TWO (RNAV)   download (197KB)
WESAT TWO (RNAV)   download (192KB)
 
IAPs - Instrument Approach Procedures
RNAV (GPS) RWY 17   download (161KB)
RNAV (GPS) RWY 35   download (187KB)
VOR/DME-A   download (150KB)
 
Departure Procedures
GARLAND SIX   2 pages: [1] [2] (341KB)
HUBBARD NINE   2 pages: [1] [2] (329KB)
KINGDOM FOUR   2 pages: [1] [2] (368KB)
KUSSO FIVE (RNAV)   2 pages: [1] [2] (280KB)
SWABR FIVE (RNAV)   2 pages: [1] [2] (279KB)
NOTE: Special Take-Off Minimums/Departure Procedures apply   download

Other nearby airports with instrument procedures:

KWEA - Parker County Airport (11 nm NW)
KNFW - Fort Worth Naval Air Station JRB (Carswell Field) Airport (14 nm NE)
KGDJ - Granbury Regional Airport (14 nm SW)
KFWS - Fort Worth Spinks Airport (14 nm E)
KCPT - Cleburne Regional Airport (16 nm SE)
KFTW - Fort Worth Meacham International Airport (18 nm NE)
 
Loc | Ops | Rwys | IFR | FBO | Links
Com | Nav | Svcs | Stats | Notes
Area around 50F (Bourland Field Airport)
 
Road maps at: MapQuest Bing Google
 
Aerial photo
WARNING: Photo may not be current or correct
Aerial photo of 50F (Bourland Field Airport)
Photo by Paul Bristow
Photo taken 01-Jun-2008

Do you have a better or more recent aerial photo of Bourland Field Airport that you would like to share? If so, please send us your photo.

 
Sectional chart

 
Airport distance calculator
Flying to Bourland Field Airport? Find the distance to fly.

From to 50F

Sunrise and sunset
Times for 26-May-2019
 Local
(UTC-5)
 Zulu
(UTC)
Morning civil twilight05:5910:59
Sunrise06:2711:27
Sunset20:2801:28
Evening civil twilight20:5601:56

Current date and time
Zulu (UTC)  26-May-2019 18:27:37
Local (UTC-5)  26-May-2019 13:27:37
 
METAR
KNFW 
13nm NE 
261752Z 16014G21KT 10SM BKN039 29/19 A3006 RMK AO2 SLP162 T02890189 58004 $
KGDJ 
14nm SW 
AWOS-3 118.925 817-573-7514
261815Z AUTO 16010G15KT 10SM SCT046 SCT050 31/18 A3005 RMK AO2 T03070178
KFWS 
15nm E 
261752Z 16011KT 10SM BKN037 29/20 A3008
KCPT 
16nm SE 
261815Z AUTO 16015KT 10SM CLR 30/20 A3007 RMK AO2
KFTW 
19nm NE 
261753Z 15019G25KT 10SM BKN040 29/19 A3005 RMK AO2 PK WND 16026/1705 SLP167 T02940189 10294 20222 58003
KGKY 
25nm E 
261753Z 15015G20KT 10SM FEW041 29/19 A3006 RMK AO2 SLP169 T02940189 10300 20228 58004
TAF
KNFW 
13nm NE 
2615/2715 16015KT 9999 SCT030 BKN250 QNH2995INS BECMG 2710/2712 17010KT 9999 BKN020 QNH3002INS T32/2619Z T22/2709Z FN20047
KFTW 
19nm NE 
261720Z 2618/2718 17015KT P6SM SCT040 BKN250 FM271000 17014KT P6SM BKN025 TEMPO 2711/2715 BKN015 FM271600 17018G28KT P6SM SCT040
NOTAMs
Click for the latest NOTAMs
NOTAMs are issued by the DoD/FAA and will open in a separate window not controlled by AirNav.

 

 
 

Would you like to see your business listed on this page?

 If your business provides an interesting product or service to pilots, flight crews, aircraft, or users of the Bourland Field Airport, you should consider listing it here.  To start the listing process, click on the button below
 
Add a business
 

Other Pages about Bourland Field Airport

www.bourlandestates.com/bourlandfield.htm
 
Update a link
 
Copyright © AirNav, LLC. All rights reserved. Privacy Policy  Contact